Upstream stations:
Downstream station:
SHEF ID: WBFO2 Arkansas River at Gore, Ok
STATION TYPE:
PRECIP STAGE STAGE(2) RIV-FLOW FLOW-INDX FLOW-VEL WTR-TEMP BAT-LOAD
in ft ft cfs ft/s mph F volt
Ccp-Rev Ccp-Rev Ccp-Rev Ccp-Rev Ccp-Rev Ccp-Rev Ccp-Rev Ccp-Rev
(US/Central)
07/24 00:00 ---- ---- 461.19 ---- ---- ---- ---- 12.57
07/24 01:00 ---- ---- 461.26 ---- ---- ---- ---- 12.57
07/24 02:00 ---- ---- 461.24 ---- ---- ---- ---- 12.56
07/24 03:00 ---- ---- 461.30 ---- ---- ---- ---- 12.54
07/24 04:00 ---- ---- 461.30 ---- ---- ---- ---- 12.53
07/24 05:00 ---- ---- 461.29 ---- ---- ---- ---- 12.51
07/24 06:00 ---- ---- 461.33 ---- ---- ---- ---- 12.50
07/24 07:00 ---- ---- 461.33 ---- ---- ---- ---- 12.48
07/24 08:00 ---- ---- 461.27 ---- ---- ---- ---- 12.83
07/24 09:00 ---- ---- 461.30 ---- ---- ---- ---- 13.43
07/24 10:00 ---- ---- 461.21 ---- ---- ---- ---- 13.15
07/24 11:00 ---- ---- 461.14 ---- ---- ---- ---- 13.05
07/24 12:00 ---- ---- 461.15 ---- ---- ---- ---- 13.00
07/24 13:00 ---- ---- 461.12 ---- ---- ---- ---- 12.99
07/24 14:00 ---- ---- 461.12 ---- ---- ---- ---- 12.97
07/24 15:00 ---- ---- 461.18 ---- ---- ---- ---- 12.96
07/24 16:00 ---- ---- 461.17 ---- ---- ---- ---- 12.94
07/24 17:00 ---- ---- 461.21 ---- ---- ---- ---- 12.94
07/24 18:00 ---- ---- 461.24 ---- ---- ---- ---- 12.93
07/24 19:00 ---- ---- 461.27 ---- ---- ---- ---- 12.90
07/24 20:00 ---- ---- 461.28 ---- ---- ---- ---- 12.79
07/24 21:00 ---- ---- 461.33 ---- ---- ---- ---- 12.62
07/24 22:00 ---- ---- 461.33 ---- ---- ---- ---- 12.60
07/24 23:00 ---- ---- 461.29 ---- ---- ---- ---- 12.59